1508238001.02,17266,18.06,74854.5,20.77,-22.93,-24.97,0,*49
1508238002.27,17267,18.06,74856.3,20.77,-22.57,-24.67,0,*4F
1508238003.47,17268,18.06,74858.8,20.79,-22.83,-24.93,0,*4C
1508238004.72,17269,18.06,74856.3,20.79,-23.69,-25.81,0,*4A
1508238005.95,17270,18.06,74856.0,20.79,-23.65,-25.65,0,*44
1508238007.2,17271,18.06,74856.5,20.81,-23.23,-25.23,0,*42
1508238008.45,17272,18.06,74858.8,20.81,-24.11,-26.07,0,*42
1508238009.7,17273,18.06,74854.8,20.81,-25.35,-27.35,0,*44
1508238010.95,17274,18.06,74856.5,20.81,-24.51,-26.55,0,*47
1508238012.18,17275,18.06,74856.0,20.81,-23.13,-25.09,0,*4D
1508238013.38,17276,18.06,74856.0,20.79,-23.09,-25.19,0,*43
1508238014.63,17277,18.06,74858.8,20.81,-23.95,-25.87,0,*47
1508238015.86,17278,18.06,74856.5,20.81,-23.89,-25.49,0,*47
1508238017.1,17279,18.06,74854.3,20.81,-24.51,-26.39,0,*40
1508238018.35,17280,18.06,74854.5,20.81,-25.03,-27.03,0,*48
1508238019.57,17281,18.06,74856.3,20.81,-24.61,-26.61,0,*49
1508238020.8,17282,18.06,74856.5,20.81,-23.89,-26.03,0,*4F
1508238022.08,17283,18.06,74856.0,20.81,-23.65,-25.71,0,*4A
1508238023.31,17284,18.06,74852.0,20.81,-22.93,-24.93,0,*48
1508238024.53,17285,18.06,74856.0,20.81,-22.53,-24.57,0,*4D
1508238025.76,17286,18.06,74852.5,20.83,-22.31,-24.51,0,*4E
1508238027.0,17287,18.06,74858.0,20.89,-22.87,-24.71,0,*4A
1508238028.26,17288,18.06,74856.5,20.85,-24.35,-26.33,0,*42
1508238029.5,17289,18.06,74856.0,20.89,-24.77,-26.77,0,*49
1508238030.75,17290,18.06,74856.5,20.89,-23.95,-25.91,0,*41
1508238032.01,17291,18.06,74860.3,20.85,-23.53,-25.49,0,*43
1508238033.23,17292,18.06,74856.8,20.85,-23.89,-25.87,0,*45
1508238034.47,17293,18.06,74856.3,20.89,-23.69,-25.65,0,*4A
1508238035.72,17294,18.06,74858.3,20.85,-23.69,-25.65,0,*41
1508238036.96,17295,18.06,74854.0,20.89,-23.95,-25.91,0,*44
1508238038.21,17296,18.06,74858.8,20.89,-24.15,-26.07,0,*44
1508238039.45,17297,18.06,74856.8,20.89,-24.97,-26.97,0,*46
1508238040.73,17298,18.06,74856.5,20.85,-23.99,-25.97,0,*4F
1508238041.98,17299,18.06,74856.3,20.85,-23.23,-25.19,0,*49
1508238043.22,17300,18.06,74856.3,20.85,-22.73,-24.57,0,*47
1508238044.44,17301,18.06,74858.0,20.89,-22.67,-24.61,0,*4A
1508238045.69,17302,18.06,74856.8,20.89,-23.65,-25.49,0,*41
1508238046.92,17303,18.06,74856.8,20.91,-23.49,-25.39,0,*40
1508238048.15,17304,18.06,74856.3,20.91,-23.79,-25.75,0,*4C
1508238049.38,17305,18.06,74856.0,20.91,-23.99,-26.07,0,*45
1508238050.61,17306,18.06,74852.0,20.91,-24.41,-26.23,0,*42
1508238051.81,17307,18.06,74856.5,20.93,-23.13,-25.09,0,*4A
1508238053.01,17308,18.06,74856.5,20.93,-22.83,-24.77,0,*45
1508238054.26,17309,18.06,74856.8,20.95,-22.93,-24.87,0,*4C
1508238055.5,17310,18.06,74858.0,20.95,-24.51,-26.39,0,*4B
1508238056.73,17311,18.06,74858.0,20.93,-23.43,-25.45,0,*40
1508238057.98,17312,18.06,74858.0,20.93,-24.21,-26.17,0,*44
1508238059.21,17313,18.06,74854.8,20.93,-23.89,-25.75,0,*47
1508238060.44,17314,18.06,74854.5,20.93,-23.59,-25.45,0,*4E
1508238061.66,17315,18.06,74858.0,20.93,-23.23,-25.19,0,*4B
1508238062.91,17316,18.06,74852.8,20.95,-22.93,-24.87,0,*42
1508238064.14,17317,18.06,74856.8,20.97,-23.19,-25.19,0,*44
1508238065.38,17318,18.06,74858.3,20.97,-22.73,-24.67,0,*4E
1508238066.6,17319,18.06,74852.5,20.97,-23.69,-25.65,0,*46
1508238067.82,17320,18.06,74858.3,20.97,-23.03,-24.97,0,*4C
1508238069.04,17321,18.06,74858.3,20.99,-22.87,-24.77,0,*40
1508238070.27,17322,18.06,74858.0,20.99,-22.87,-24.77,0,*43
1508238071.47,17323,18.06,74856.0,21.01,-23.43,-25.39,0,*40
1508238072.72,17324,18.06,74858.8,21.01,-23.65,-25.55,0,*49
1508238073.94,17325,18.06,74858.3,21.03,-23.39,-25.19,0,*4B
1508238075.19,17326,18.06,74856.3,21.03,-23.13,-25.03,0,*4B
1508238076.46,17327,18.13,74860.3,21.03,-23.03,-24.87,0,*46
1508238077.68,17328,18.06,74858.3,21.03,-22.63,-24.57,0,*43
1508238078.92,17329,18.06,74856.0,21.07,-23.03,-24.97,0,*4D
1508238080.14,17330,18.13,74860.5,21.05,-22.87,-24.71,0,*42
1508238081.38,17331,18.06,74856.3,21.03,-22.73,-24.51,0,*4C
1508238082.63,17332,18.06,74858.8,21.05,-23.53,-25.55,0,*4F
1508238083.89,17333,18.06,74858.3,21.07,-23.65,-25.49,0,*44
1508238085.13,17334,18.06,74858.3,21.07,-23.69,-25.61,0,*45
1508238086.4,17335,18.06,74858.8,21.07,-22.73,-24.67,0,*49
1508238087.64,17336,18.06,74858.5,21.07,-23.03,-24.93,0,*47
1508238088.89,17337,18.06,74856.5,21.11,-23.19,-25.23,0,*40
1508238090.15,17338,18.06,74860.3,21.11,-23.79,-25.71,0,*4E
1508238091.38,17339,18.06,74860.3,21.11,-25.13,-27.07,0,*46
1508238092.62,17340,18.06,74852.3,21.11,-25.09,-26.93,0,*4F
1508238093.9,17341,18.06,74852.8,21.07,-24.11,-25.97,0,*46
1508238095.13,17342,18.06,74856.5,21.07,-24.51,-26.45,0,*4D
1508238096.36,17343,18.06,74852.5,21.07,-24.47,-26.45,0,*4B
1508238097.64,17344,18.06,74852.0,21.07,-24.21,-26.13,0,*4F
1508238098.83,17345,18.06,74854.8,21.05,-23.89,-25.87,0,*47
1508238100.07,17346,18.06,74852.0,21.05,-23.99,-25.81,0,*43
1508238101.32,17347,18.06,74856.0,21.07,-23.65,-25.49,0,*47
1508238102.57,17348,18.06,74852.3,21.07,-23.23,-25.13,0,*45
1508238103.82,17349,18.06,74856.5,21.07,-22.57,-24.67,0,*44
1508238105.07,17350,18.06,74858.5,21.07,-24.15,-26.07,0,*48
1508238106.34,17351,18.06,74856.0,21.11,-23.49,-25.45,0,*45
1508238107.59,17352,18.13,74858.8,21.11,-23.95,-25.87,0,*49
1508238108.79,17353,18.06,74856.8,21.13,-23.43,-25.35,0,*48
1508238110.0,17354,18.06,74854.8,21.13,-22.87,-24.83,0,*4A
1508238111.19,17355,18.06,74854.5,21.13,-23.39,-25.35,0,*43
1508238112.39,17356,18.13,74856.5,21.13,-23.09,-24.97,0,*4A
1508238113.59,17357,18.06,74854.5,21.13,-22.93,-24.97,0,*49
1508238114.82,17358,18.06,74856.5,21.15,-23.43,-25.39,0,*49
1508238116.09,17359,18.06,74856.8,21.15,-23.99,-25.97,0,*4B
1508238117.35,17360,18.06,74856.5,21.15,-24.25,-26.23,0,*4D
1508238118.62,17361,18.13,74856.8,21.15,-24.83,-26.81,0,*48
1508238119.84,17362,18.13,74858.3,21.13,-25.03,-26.87,0,*42
1508238121.07,17363,18.06,74856.0,21.13,-24.35,-26.33,0,*48
1508238122.29,17364,18.13,74856.5,21.13,-25.55,-27.55,0,*49
1508238123.52,17365,18.06,74854.0,21.13,-24.71,-26.65,0,*4D
1508238124.77,17366,18.06,74854.5,21.13,-24.25,-26.17,0,*4A
1508238125.97,17367,18.06,74854.8,21.13,-23.09,-24.97,0,*48
1508238127.25,17368,18.13,74856.8,21.11,-23.29,-25.29,0,*43
1508238128.49,17369,18.06,74858.5,21.11,-25.45,-27.55,0,*47
1508238129.75,17370,18.06,74856.0,21.11,-24.25,-26.07,0,*4E
1508238131.0,17371,18.06,74856.3,21.07,-23.53,-25.35,0,*4C
1508238132.25,17372,18.06,74858.0,21.11,-24.41,-26.45,0,*48
1508238133.51,17373,18.06,74856.3,21.11,-23.65,-25.61,0,*4D
1508238134.77,17374,18.13,74858.5,21.11,-23.59,-25.55,0,*42
1508238136.02,17375,18.06,74858.0,21.11,-23.95,-25.87,0,*4C
1508238137.22,17376,18.06,74856.5,21.13,-23.75,-25.65,0,*4F
1508238138.45,17377,18.13,74858.3,21.13,-24.21,-26.03,0,*4B
1508238139.68,17378,18.06,74856.3,21.13,-23.09,-24.87,0,*47
1508238140.92,17379,18.13,74856.8,21.15,-23.29,-25.23,0,*4D
1508238142.19,17380,18.13,74856.8,21.15,-24.67,-26.55,0,*44
1508238143.39,17381,18.06,74858.0,21.13,-23.89,-25.65,0,*44
1508238144.62,17382,18.13,74860.0,21.15,-23.43,-25.39,0,*4E
1508238145.85,17383,18.06,74856.3,21.15,-23.43,-25.39,0,*4F
1508238147.07,17384,18.13,74858.3,21.15,-23.43,-25.35,0,*44
1508238148.36,17385,18.06,74852.5,21.15,-24.25,-25.97,0,*4A
1508238149.61,17386,18.06,74854.5,21.15,-23.23,-25.09,0,*4F
1508238150.84,17387,18.13,74856.5,21.15,-23.59,-25.49,0,*47
1508238152.06,17388,18.06,74854.5,21.19,-22.87,-24.77,0,*4A
1508238153.31,17389,18.13,74856.0,21.19,-23.79,-25.75,0,*48
1508238154.59,17390,18.06,74856.5,21.19,-24.71,-26.55,0,*4E
1508238155.81,17391,18.13,74856.0,21.17,-25.61,-27.45,0,*41
1508238157.01,17392,18.06,74854.3,21.17,-24.51,-26.49,0,*4D
1508238158.23,17393,18.06,74854.3,21.17,-23.79,-25.81,0,*46
1508238159.49,17394,18.06,74850.5,21.17,-23.85,-25.75,0,*49
1508238160.71,17395,18.13,74856.5,21.17,-23.23,-25.35,0,*40
1508238161.91,17396,18.13,74856.5,21.17,-22.67,-24.61,0,*42
1508238163.15,17397,18.13,74856.0,21.19,-22.97,-24.87,0,*4A
1508238164.43,17398,18.13,74858.0,21.19,-23.49,-25.55,0,*49
1508238165.7,17399,18.13,74858.0,21.19,-26.55,-28.59,0,*41
1508238166.95,17400,18.06,74854.3,21.17,-25.45,-26.97,0,*46
1508238168.2,17401,18.13,74858.5,21.19,-24.25,-26.07,0,*47
1508238169.48,17402,18.06,74856.5,21.19,-23.49,-25.55,0,*4D
1508238170.73,17403,18.06,74854.5,21.15,-24.25,-26.23,0,*4F
1508238171.94,17404,18.06,74854.5,21.17,-24.47,-26.45,0,*4E
1508238173.16,17405,18.13,74858.3,21.17,-25.97,-27.93,0,*49
1508238174.39,17406,18.13,74858.0,21.17,-24.31,-26.17,0,*4A
1508238175.59,17407,18.13,74858.3,21.17,-23.79,-25.65,0,*46
1508238176.8,17408,18.06,74856.3,21.17,-23.79,-25.61,0,*4D
1508238178.05,17409,18.13,74854.3,21.19,-23.03,-25.09,0,*41
1508238179.28,17410,18.13,74858.3,21.17,-23.09,-25.03,0,*47
1508238180.51,17411,18.13,74858.5,21.17,-24.15,-26.03,0,*4F
1508238181.76,17412,18.13,74856.0,21.19,-23.75,-25.71,0,*45
1508238182.99,17413,18.13,74858.0,21.17,-23.99,-25.91,0,*46
1508238184.24,17414,18.13,74858.0,21.19,-24.11,-26.03,0,*40
1508238185.49,17415,18.13,74854.5,21.19,-23.33,-25.39,0,*4C
1508238186.74,17416,18.13,74856.5,21.19,-23.95,-25.91,0,*41
1508238187.99,17417,18.13,74858.3,21.17,-24.21,-26.17,0,*4B
1508238189.22,17418,18.13,74856.5,21.19,-23.43,-25.39,0,*46
1508238190.47,17419,18.06,74854.0,21.19,-23.29,-25.13,0,*43
1508238191.68,17420,18.13,74858.3,21.19,-22.63,-24.47,0,*46
1508238192.93,17421,18.13,74858.0,21.19,-22.87,-24.71,0,*48
1508238194.16,17422,18.13,74858.3,21.21,-23.75,-25.55,0,*4B
1508238195.41,17423,18.13,74854.0,21.23,-22.97,-24.87,0,*4B
1508238196.66,17424,18.13,74856.5,21.23,-22.93,-24.83,0,*4C
1508238197.9,17425,18.13,74854.8,21.25,-22.77,-24.77,0,*4A
1508238199.12,17426,18.06,74852.8,21.25,-23.09,-24.97,0,*4F
1508238200.35,17427,18.13,74856.3,21.27,-22.67,-24.61,0,*4C
1508238201.58,17428,18.13,74856.8,21.27,-22.67,-24.51,0,*40
1508238202.85,17429,18.06,74854.0,21.27,-24.15,-26.03,0,*47
1508238204.11,17430,18.13,74854.5,21.27,-23.99,-25.87,0,*43
1508238205.37,17431,18.13,74856.3,21.27,-24.31,-26.13,0,*49
1508238206.61,17432,18.13,74854.8,21.27,-24.61,-26.45,0,*4C
1508238207.85,17433,18.13,74858.0,21.25,-23.53,-25.49,0,*46
1508238209.08,17434,18.06,74854.8,21.25,-22.67,-24.67,0,*4A
1508238210.32,17435,18.13,74856.8,21.27,-23.09,-24.97,0,*4F
1508238211.55,17436,18.13,74858.5,21.29,-25.09,-26.97,0,*46
1508238212.78,17437,18.13,74856.0,21.29,-24.93,-26.77,0,*4B
1508238214.04,17438,18.13,74858.0,21.27,-23.69,-25.49,0,*46
1508238215.3,17439,18.13,74856.8,21.27,-23.09,-25.03,0,*4F
1508238216.5,17440,18.13,74858.5,21.29,-22.63,-24.61,0,*47
1508238217.71,17441,18.13,74854.8,21.29,-22.97,-24.93,0,*40
1508238218.98,17442,18.13,74854.0,21.31,-23.53,-25.39,0,*42
1508238220.22,17443,18.13,74856.3,21.29,-22.97,-24.83,0,*43
1508238221.48,17444,18.13,74856.8,21.31,-23.09,-25.03,0,*42
1508238222.72,17445,18.13,74856.0,21.31,-22.93,-24.77,0,*43
1508238223.99,17446,18.13,74854.5,21.35,-23.75,-25.71,0,*4A
1508238225.26,17447,18.13,74854.0,21.35,-23.89,-25.71,0,*48
1508238226.53,17448,18.13,74858.5,21.35,-24.31,-26.13,0,*44
1508238227.78,17449,18.13,74858.3,21.35,-23.03,-24.97,0,*4D
1508238229.08,17450,18.06,74854.3,21.35,-23.85,-25.71,0,*42
1508238230.36,17451,18.13,74856.5,21.35,-23.85,-25.71,0,*43
1508238231.6,17452,18.13,74858.0,21.37,-23.69,-25.61,0,*41
1508238232.84,17453,18.13,74854.0,21.37,-23.75,-25.81,0,*43
1508238234.1,17454,18.13,74856.0,21.35,-23.69,-25.49,0,*4F
1508238235.34,17455,18.13,74854.0,21.37,-23.85,-25.61,0,*44
1508238236.61,17456,18.13,74858.0,21.35,-24.35,-26.29,0,*46
1508238237.85,17457,18.13,74858.8,21.37,-24.47,-26.17,0,*4D
1508238239.09,17458,18.13,74856.8,21.37,-23.89,-25.81,0,*4B
1508238240.32,17459,18.13,74856.3,21.35,-24.61,-26.61,0,*44
1508238241.56,17460,18.13,74852.5,21.37,-24.83,-26.65,0,*44
1508238242.82,17461,18.13,74856.8,21.35,-24.35,-26.17,0,*4F
1508238244.08,17462,18.13,74854.8,21.35,-24.05,-25.81,0,*43
1508238245.35,17463,18.13,74854.8,21.35,-24.35,-26.29,0,*40
1508238246.61,17464,18.13,74852.3,21.35,-23.65,-25.49,0,*40
1508238247.9,17465,18.13,74856.3,21.35,-23.69,-25.71,0,*46
1508238249.18,17466,18.13,74858.5,21.35,-23.19,-25.03,0,*47
1508238250.39,17467,18.13,74858.5,21.37,-23.39,-25.35,0,*43
1508238251.63,17468,18.13,74856.5,21.37,-23.89,-25.71,0,*47
1508238252.9,17469,18.13,74858.3,21.35,-24.71,-26.65,0,*42
1508238254.13,17470,18.13,74854.8,21.35,-25.35,-27.29,0,*42
1508238255.37,17471,18.13,74858.5,21.35,-23.75,-25.65,0,*4B
1508238256.66,17472,18.13,74854.0,21.35,-23.49,-25.45,0,*45
1508238257.89,17473,18.06,74854.0,21.35,-24.97,-27.03,0,*40
1508238259.15,17474,18.13,74854.8,21.35,-24.83,-26.65,0,*43
1508238260.41,17475,18.13,74858.0,21.35,-23.69,-25.61,0,*46
1508238261.66,17476,18.13,74856.0,21.35,-23.39,-25.45,0,*46
1508238262.93,17477,18.13,74858.5,21.37,-22.77,-24.71,0,*48
1508238264.17,17478,18.13,74852.5,21.37,-23.65,-25.61,0,*45
1508238265.43,17479,18.13,74854.8,21.37,-23.23,-25.29,0,*4A
1508238266.67,17480,18.13,74856.5,21.37,-23.03,-24.97,0,*4A
1508238267.88,17481,18.13,74858.8,21.37,-24.05,-25.87,0,*4A
1508238269.12,17482,18.13,74858.5,21.39,-25.13,-27.07,0,*4B
1508238270.39,17483,18.13,74856.0,21.39,-24.31,-26.13,0,*4F
1508238271.65,17484,18.13,74860.0,21.39,-24.15,-26.07,0,*4B
1508238272.89,17485,18.13,74856.8,21.37,-23.69,-25.61,0,*4B
1508238274.12,17486,18.13,74856.8,21.37,-23.03,-24.97,0,*4C
1508238275.36,17487,18.13,74856.0,21.39,-24.31,-26.23,0,*48
1508238276.66,17488,18.13,74854.8,21.39,-24.11,-25.97,0,*49
1508238277.92,17489,18.13,74854.5,21.39,-23.43,-25.29,0,*4D
1508238279.18,17490,18.13,74858.0,21.39,-22.87,-24.83,0,*4D
1508238280.39,17491,18.13,74854.3,21.41,-22.67,-24.61,0,*41
1508238281.62,17492,18.13,74852.8,21.41,-24.11,-25.87,0,*4C
1508238282.86,17493,18.13,74858.5,21.41,-23.29,-25.09,0,*47
1508238284.13,17494,18.13,74862.3,21.43,-23.75,-25.55,0,*42
1508238285.38,17495,18.13,74858.5,21.43,-23.75,-25.61,0,*44
1508238286.64,17496,18.13,74860.3,21.43,-24.61,-26.55,0,*41
1508238287.89,17497,18.13,74858.8,21.43,-27.35,-29.45,0,*4C
1508238289.16,17498,18.13,74860.0,21.39,-27.61,-29.61,0,*49
1508238290.4,17499,18.13,74858.5,21.37,-26.81,-28.97,0,*41
1508238291.65,17500,18.13,74858.8,21.31,-26.87,-29.01,0,*4E
1508238292.9,17501,18.13,74856.0,21.29,-28.79,-30.83,0,*4B
1508238294.14,17502,18.13,74858.8,21.27,-27.19,-29.23,0,*4D
1508238295.44,17503,18.13,74858.0,21.27,-26.81,-28.63,0,*49
1508238296.68,17504,18.13,74856.3,21.23,-25.23,-27.45,0,*4A
1508238297.93,17505,18.13,74856.5,21.23,-26.07,-28.25,0,*47
1508238299.18,17506,18.13,74856.0,21.23,-25.55,-27.67,0,*49
1508238300.43,17507,18.13,74856.8,21.23,-27.99,-30.11,0,*4D
1508238301.65,17508,18.13,74858.0,21.21,-27.13,-29.35,0,*4C
1508238302.87,17509,18.13,74860.0,21.19,-25.87,-27.89,0,*40
1508238304.11,17510,18.13,74856.8,21.17,-25.45,-27.45,0,*48
1508238305.33,17511,18.13,74858.3,21.17,-25.75,-27.77,0,*4B
1508238306.59,17512,18.13,74858.3,21.19,-24.71,-26.65,0,*41
1508238307.79,17513,18.13,74862.3,21.17,-24.05,-26.03,0,*4D
1508238309.05,17514,18.13,74858.0,21.19,-23.75,-25.75,0,*46
1508238310.24,17515,18.13,74856.8,21.17,-25.19,-27.13,0,*47
1508238311.49,17516,18.13,74858.0,21.19,-23.95,-25.65,0,*4B
1508238312.74,17517,18.13,74856.0,21.19,-23.03,-25.09,0,*4F
1508238313.97,17518,18.13,74858.0,21.17,-23.65,-25.61,0,*40
1508238315.22,17519,18.13,74854.5,21.19,-24.87,-27.03,0,*42
1508238316.44,17520,18.13,74856.5,21.19,-27.03,-29.07,0,*4D
1508238317.66,17521,18.13,74858.3,21.17,-25.91,-27.83,0,*49
1508238318.85,17522,18.13,74858.0,21.17,-24.77,-26.65,0,*4A
1508238320.1,17523,18.13,74852.3,21.17,-24.15,-26.13,0,*4E
1508238321.36,17524,18.13,74860.8,21.17,-23.99,-25.97,0,*45
1508238322.59,17525,18.13,74852.8,21.17,-23.49,-25.61,0,*40
1508238323.84,17526,18.13,74858.0,21.19,-24.25,-26.23,0,*45
1508238325.12,17527,18.13,74852.3,21.19,-24.11,-25.97,0,*4F
1508238326.34,17528,18.13,74858.5,21.19,-24.61,-26.45,0,*4B
1508238327.59,17529,18.13,74858.3,21.19,-23.59,-25.45,0,*45
1508238328.81,17530,18.13,74856.5,21.23,-24.57,-26.49,0,*42
1508238330.05,17531,18.13,74856.0,21.21,-26.29,-28.59,0,*45
1508238331.27,17532,18.13,74858.3,21.21,-26.07,-28.09,0,*4F
1508238332.49,17533,18.13,74854.8,21.17,-24.97,-26.81,0,*4E
1508238333.75,17534,18.13,74858.8,21.19,-24.31,-26.29,0,*49
1508238335.01,17535,18.13,74856.8,21.19,-24.41,-26.39,0,*4E
1508238336.28,17536,18.13,74856.8,21.19,-23.49,-25.45,0,*4A
1508238337.53,17537,18.13,74858.8,21.19,-23.43,-25.45,0,*41
1508238338.81,17538,18.13,74856.8,21.19,-24.71,-26.71,0,*4C
1508238340.08,17539,18.13,74858.3,21.19,-25.97,-28.05,0,*49
1508238341.32,17540,18.13,74860.0,21.17,-24.47,-26.29,0,*45
1508238342.57,17541,18.13,74856.3,21.19,-23.33,-25.39,0,*4C
1508238343.76,17542,18.13,74854.0,21.21,-23.13,-25.23,0,*4D
1508238345.02,17543,18.13,74858.3,21.23,-23.59,-25.55,0,*41
1508238346.24,17544,18.13,74858.0,21.21,-26.45,-27.99,0,*4E
1508238347.48,17545,18.13,74856.3,21.21,-28.43,-30.55,0,*41
1508238348.68,17546,18.13,74856.3,21.17,-27.67,-29.57,0,*44
1508238349.91,17547,18.13,74860.5,21.15,-25.49,-27.51,0,*41
1508238351.13,17548,18.13,74858.5,21.13,-24.21,-26.07,0,*45
1508238352.39,17549,18.13,74856.0,21.15,-23.59,-25.55,0,*4E
1508238353.58,17550,18.13,74858.8,21.17,-23.39,-25.35,0,*44
1508238354.83,17551,18.13,74858.0,21.17,-24.15,-26.17,0,*4F
1508238356.11,17552,18.13,74858.0,21.19,-24.25,-26.29,0,*4C
1508238357.36,17553,18.13,74858.0,21.17,-25.03,-26.97,0,*43
1508238358.6,17554,18.13,74858.3,21.19,-24.57,-26.55,0,*44
1508238359.83,17555,18.13,74856.5,21.17,-23.85,-25.91,0,*48
1508238361.07,17556,18.13,74858.0,21.19,-23.99,-25.91,0,*48
1508238362.34,17557,18.13,74858.0,21.19,-24.87,-26.71,0,*4C
1508238363.56,17558,18.13,74858.3,21.19,-23.89,-25.91,0,*47
1508238364.84,17559,18.13,74856.3,21.23,-24.21,-26.29,0,*4A
1508238366.06,17560,18.13,74858.8,21.21,-23.95,-25.91,0,*4A
1508238367.3,17561,18.13,74856.0,21.19,-24.15,-26.23,0,*45
1508238368.52,17562,18.13,74852.5,21.21,-23.95,-25.91,0,*48
1508238369.75,17563,18.13,74852.0,21.23,-23.59,-25.49,0,*4E
1508238370.99,17564,18.13,74856.0,21.23,-23.75,-25.65,0,*49
1508238372.22,17565,18.13,74856.5,21.23,-24.05,-26.03,0,*4B
1508238373.49,17566,18.13,74854.5,21.23,-23.69,-25.71,0,*43
1508238374.73,17567,18.13,74856.5,21.23,-24.51,-26.39,0,*41
1508238375.99,17568,18.13,74856.5,21.23,-23.53,-25.49,0,*4F
1508238377.22,17569,18.13,74854.3,21.25,-24.67,-26.65,0,*45
1508238378.48,17570,18.13,74854.0,21.27,-24.67,-26.49,0,*41
1508238379.74,17571,18.13,74856.8,21.25,-23.19,-25.29,0,*49
1508238380.97,17572,18.13,74858.5,21.25,-23.33,-25.19,0,*41
1508238382.24,17573,18.13,74856.8,21.25,-23.85,-25.75,0,*47
1508238383.5,17574,18.13,74858.0,21.25,-23.85,-25.81,0,*4B
1508238384.74,17575,18.13,74856.3,21.27,-22.53,-24.51,0,*4E
1508238386.0,17576,18.13,74856.0,21.27,-23.23,-25.19,0,*46
1508238387.26,17577,18.13,74858.8,21.27,-24.05,-26.13,0,*4D
1508238388.5,17578,18.13,74854.3,21.27,-24.47,-26.45,0,*47
1508238389.74,17579,18.13,74856.5,21.29,-23.65,-25.61,0,*4A
1508238391.01,17580,18.13,74858.3,21.31,-22.97,-25.03,0,*4D
1508238392.24,17581,18.13,74856.0,21.29,-23.29,-25.23,0,*43
1508238393.48,17582,18.13,74852.5,21.31,-22.93,-24.93,0,*43
1508238394.75,17583,18.13,74856.8,21.31,-23.75,-25.55,0,*40
1508238396.01,17584,18.13,74856.0,21.31,-23.23,-25.19,0,*4C
1508238397.27,17585,18.13,74856.5,21.31,-23.95,-25.87,0,*47
1508238398.49,17586,18.13,74856.0,21.37,-23.09,-24.97,0,*47
1508238399.77,17587,18.13,74856.3,21.35,-23.49,-25.45,0,*4E
1508238401.03,17588,18.13,74856.5,21.35,-23.69,-25.49,0,*4F
1508238402.24,17589,18.13,74858.3,21.37,-23.89,-26.03,0,*4F
1508238403.48,17590,18.13,74856.0,21.37,-23.65,-25.61,0,*42
1508238404.74,17591,18.13,74854.5,21.37,-23.33,-25.29,0,*4C
1508238405.98,17592,18.13,74856.5,21.39,-22.83,-24.77,0,*41
1508238407.2,17593,18.13,74858.5,21.41,-23.43,-25.39,0,*49
1508238408.44,17594,18.13,74856.3,21.41,-24.25,-26.23,0,*41
1508238409.73,17595,18.13,74856.3,21.39,-23.95,-25.81,0,*48
1508238410.94,17596,18.13,74858.5,21.41,-23.13,-25.13,0,*41
1508238412.15,17597,18.13,74856.5,21.41,-23.13,-25.19,0,*4A
1508238413.39,17598,18.13,74858.0,21.41,-23.53,-25.49,0,*44
1508238414.6,17599,18.13,74856.0,21.41,-25.35,-27.51,0,*48
1508238415.89,17600,18.13,74856.0,21.39,-24.83,-26.77,0,*4D
1508238417.15,17601,18.13,74856.3,21.39,-24.61,-26.55,0,*40
1508238418.36,17602,18.13,74860.0,21.41,-23.39,-25.23,0,*44
1508238419.6,17603,18.13,74860.0,21.41,-23.53,-25.39,0,*42
1508238420.82,17604,18.13,74856.8,21.41,-24.93,-26.93,0,*4D
1508238422.04,17605,18.13,74856.5,21.41,-23.43,-25.39,0,*45
1508238423.31,17606,18.13,74856.3,21.41,-23.53,-25.55,0,*4D
1508238424.57,17607,18.13,74856.8,21.41,-23.95,-25.75,0,*44
1508238425.81,17608,18.13,74858.3,21.41,-22.77,-24.77,0,*45
1508238427.07,17609,18.13,74856.3,21.43,-22.83,-24.87,0,*42
1508238428.3,17610,18.13,74856.3,21.45,-22.11,-24.15,0,*4C
1508238429.5,17611,18.13,74856.3,21.45,-22.41,-24.47,0,*4F
1508238430.77,17612,18.13,74858.5,21.45,-23.03,-24.87,0,*47
1508238432.03,17613,18.13,74856.0,21.47,-24.11,-26.07,0,*4A
1508238433.31,17614,18.13,74856.5,21.47,-23.65,-25.61,0,*4A
1508238434.6,17615,18.13,74856.3,21.47,-23.29,-25.29,0,*4F
1508238435.8,17616,18.13,74856.3,21.49,-22.97,-24.93,0,*46
1508238437.05,17617,18.13,74856.0,21.47,-22.57,-24.47,0,*4C
1508238438.25,17618,18.13,74856.3,21.49,-22.97,-24.97,0,*4C
1508238439.49,17619,18.13,74858.3,21.49,-23.65,-25.61,0,*49
1508238440.78,17620,18.13,74858.0,21.51,-22.77,-24.71,0,*48
1508238442.01,17621,18.13,74858.0,21.53,-22.63,-24.67,0,*49
1508238443.29,17622,18.13,74858.5,21.51,-22.77,-24.87,0,*43
1508238444.52,17623,18.13,74858.0,21.53,-23.33,-25.19,0,*47
1508238445.76,17624,18.13,74856.8,21.53,-23.23,-25.13,0,*4B
1508238446.99,17625,18.13,74858.3,21.53,-23.09,-25.03,0,*43
1508238448.25,17626,18.13,74856.3,21.57,-25.23,-27.39,0,*41
1508238449.47,17627,18.13,74858.0,21.53,-25.65,-27.45,0,*4D
1508238450.71,17628,18.13,74858.3,21.51,-24.77,-26.87,0,*4D
1508238451.96,17629,18.13,74852.8,21.51,-25.19,-27.23,0,*4A
1508238453.23,17630,18.13,74856.0,21.51,-24.11,-26.03,0,*48
1508238454.47,17631,18.13,74854.5,21.51,-23.75,-25.61,0,*4B
1508238455.69,17632,18.13,74856.8,21.49,-23.79,-25.61,0,*4D
1508238456.93,17633,18.13,74854.3,21.53,-23.53,-25.49,0,*45
1508238458.19,17634,18.13,74858.0,21.51,-23.79,-25.75,0,*47
1508238459.43,17635,18.13,74856.8,21.51,-23.39,-25.39,0,*4A
1508238460.66,17636,18.13,74856.8,21.51,-23.13,-25.09,0,*42
1508238461.9,17637,18.13,74858.0,21.53,-23.99,-25.87,0,*45
1508238463.16,17638,18.13,74856.3,21.51,-23.79,-25.71,0,*4F
1508238464.42,17639,18.19,74862.5,21.53,-24.15,-26.13,0,*46
1508238465.66,17640,18.13,74856.3,21.53,-23.85,-25.65,0,*44
1508238466.92,17641,18.13,74858.8,21.51,-24.21,-26.23,0,*4F
1508238468.16,17642,18.13,74856.0,21.53,-23.75,-25.71,0,*4C
1508238469.42,17643,18.13,74856.0,21.53,-23.19,-25.03,0,*42
1508238470.65,17644,18.13,74858.5,21.57,-22.87,-24.93,0,*4F
1508238471.94,17645,18.13,74858.3,21.57,-23.19,-25.29,0,*48
1508238473.2,17646,18.13,74860.0,21.57,-23.03,-24.97,0,*44
1508238474.47,17647,18.13,74854.3,21.57,-22.73,-24.67,0,*4C
1508238475.73,17648,18.13,74858.0,21.61,-22.93,-24.87,0,*46
1508238476.99,17649,18.13,74858.0,21.61,-22.97,-24.87,0,*43
1508238478.28,17650,18.13,74858.5,21.61,-22.77,-24.71,0,*4C
1508238479.52,17651,18.13,74856.3,21.63,-23.23,-25.19,0,*40
1508238480.76,17652,18.13,74858.5,21.63,-23.75,-25.71,0,*4E
1508238482.05,17653,18.13,74858.3,21.61,-23.33,-25.29,0,*42
1508238483.26,17654,18.13,74860.0,21.63,-22.93,-24.97,0,*48
1508238484.5,17655,18.13,74858.8,21.63,-24.77,-26.77,0,*49
1508238485.76,17656,18.13,74858.0,21.61,-23.65,-25.61,0,*48
1508238487.04,17657,18.13,74856.0,21.61,-23.49,-25.45,0,*41
1508238488.29,17658,18.13,74860.0,21.63,-23.99,-26.03,0,*40
1508238489.54,17659,18.13,74858.5,21.61,-27.23,-29.23,0,*4B
1508238490.77,17660,18.13,74858.0,21.61,-25.23,-27.03,0,*4F
1508238492.03,17661,18.13,74858.0,21.61,-23.59,-25.55,0,*44
1508238493.27,17662,18.13,74856.8,21.61,-23.13,-25.09,0,*40
1508238494.52,17663,18.13,74856.0,21.61,-23.23,-25.19,0,*43
1508238495.79,17664,18.13,74858.5,21.63,-24.21,-26.17,0,*4E
1508238497.08,17665,18.19,74860.8,21.61,-23.33,-25.29,0,*47